When you browse on this site, cookies collect data to enhance your experience and personalize the content and advertising you see.
Visit our Privacy Policy to learn more. By continuing to use the site, you agree to this use of cookies and data.
  • In Czech Republic
  • List of Countries
  • For 7 days
  • Water Temperature
  • Satellite Maps
  • Weather Map
  • Weather Widgets
  • user-avatar
    Login

    Hourly Weather Ozhibokovo

    Today, 16 November, Friday

    Time Temperature Precipitation Wind Pressure Humidity
    00:00 0°C° 0 mm 1 mps 764 mmHg 80%
    01:00 0°C° 0 mm 1 mps 765 mmHg 80%
    02:00 0°C° 0 mm 1 mps 765 mmHg 80%
    03:00 -1°C° 0 mm 1 mps 765 mmHg 80%
    04:00 -1°C° 0 mm 1 mps 765 mmHg 79%
    05:00 -1°C° 0 mm 1 mps 766 mmHg 79%
    06:00 -1°C° 0 mm 1 mps 766 mmHg 78%
    07:00 -1°C° 0 mm 1 mps 766 mmHg 77%
    08:00 -1°C° 0 mm 1 mps 766 mmHg 76%
    09:00 0°C° 0 mm 1 mps 767 mmHg 71%
    10:00 +1°C° 0 mm 1 mps 767 mmHg 67%
    11:00 +2°C° 0 mm 1 mps 767 mmHg 63%
    12:00 +2°C° 0 mm 1 mps 767 mmHg 64%
    13:00 +2°C° 0 mm 1 mps 767 mmHg 65%
    14:00 +2°C° 0 mm 1 mps 767 mmHg 68%
    15:00 +1°C° 0 mm 1 mps 767 mmHg 70%
    16:00 +1°C° 0 mm 1 mps 767 mmHg 72%
    17:00 0°C° 0 mm 1 mps 767 mmHg 74%
    18:00 0°C° 0 mm 1 mps 767 mmHg 75%
    19:00 0°C° 0 mm 1 mps 767 mmHg 76%
    20:00 0°C° 0 mm 1 mps 767 mmHg 76%
    21:00 -2°C° 0 mm 2 mps 767 mmHg 77%
    22:00 -2°C° 0 mm 2 mps 767 mmHg 77%
    23:00 -2°C° 0 mm 2 mps 767 mmHg 77%

    Tomorrow, 17 November, Saturday

    Time Temperature Precipitation Wind Pressure Humidity
    00:00 -2°C° 0 mm 2 mps 767 mmHg 77%
    01:00 -2°C° 0 mm 2 mps 766 mmHg 77%
    02:00 -2°C° 0 mm 2 mps 766 mmHg 77%
    03:00 -2°C° 0 mm 2 mps 766 mmHg 78%
    04:00 -2°C° 0 mm 3 mps 765 mmHg 78%
    05:00 -4°C° 0 mm 3 mps 765 mmHg 78%
    06:00 -4°C° 0 mm 3 mps 765 mmHg 78%
    07:00 -4°C° 0 mm 3 mps 764 mmHg 78%
    08:00 -4°C° 0 mm 3 mps 764 mmHg 78%
    09:00 -2°C° 0 mm 3 mps 763 mmHg 75%
    10:00 -2°C° 0 mm 4 mps 763 mmHg 72%
    11:00 -1°C° 0 mm 4 mps 762 mmHg 69%
    12:00 -1°C° 0 mm 4 mps 761 mmHg 69%
    13:00 -1°C° 0 mm 4 mps 761 mmHg 70%
    14:00 0°C° 0 mm 4 mps 760 mmHg 71%
    15:00 -1°C° 0.3 mm 4 mps 759 mmHg 75%
    16:00 -1°C° 0.3 mm 4 mps 759 mmHg 79%
    17:00 -1°C° 0.3 mm 4 mps 758 mmHg 83%
    18:00 -1°C° 0.1 mm 4 mps 757 mmHg 85%
    19:00 -1°C° 0.1 mm 4 mps 756 mmHg 86%
    20:00 -1°C° 0.1 mm 4 mps 755 mmHg 88%
    21:00 -1°C° 0.1 mm 4 mps 754 mmHg 89%
    22:00 -1°C° 0.1 mm 4 mps 754 mmHg 90%
    23:00 -1°C° 0.1 mm 4 mps 753 mmHg 91%

    Day after tomorrow, 18 November, Sunday

    Time Temperature Precipitation Wind Pressure Humidity
    00:00 -1°C° 0.1 mm 4 mps 752 mmHg 91%
    01:00 -1°C° 0.1 mm 4 mps 751 mmHg 92%
    02:00 0°C° 0.1 mm 4 mps 751 mmHg 92%
    03:00 0°C° 0.1 mm 4 mps 750 mmHg 92%
    04:00 0°C° 0.1 mm 4 mps 749 mmHg 93%
    05:00 0°C° 0.1 mm 4 mps 748 mmHg 93%
    06:00 +1°C° 0.1 mm 3 mps 748 mmHg 94%
    07:00 +1°C° 0.1 mm 3 mps 748 mmHg 94%
    08:00 +1°C° 0.1 mm 3 mps 747 mmHg 95%
    09:00 +1°C° 0.1 mm 3 mps 747 mmHg 95%
    10:00 +2°C° 0.1 mm 2 mps 747 mmHg 95%
    11:00 +2°C° 0.1 mm 2 mps 747 mmHg 95%
    12:00 +2°C° 0.1 mm 2 mps 747 mmHg 95%
    13:00 +2°C° 0.1 mm 2 mps 747 mmHg 96%
    14:00 +2°C° 0.1 mm 2 mps 747 mmHg 96%
    15:00 +2°C° 0.3 mm 2 mps 747 mmHg 96%
    16:00 +2°C° 0.3 mm 2 mps 748 mmHg 96%
    17:00 +2°C° 0.3 mm 2 mps 748 mmHg 96%
    18:00 +2°C° 0.2 mm 2 mps 748 mmHg 95%
    19:00 +1°C° 0.2 mm 3 mps 748 mmHg 95%
    20:00 +1°C° 0.2 mm 3 mps 749 mmHg 95%
    21:00 0°C° 0.1 mm 3 mps 749 mmHg 95%
    22:00 0°C° 0.1 mm 3 mps 749 mmHg 96%
    23:00 0°C° 0.1 mm 3 mps 750 mmHg 96%

    19 November, Monday

    Time Temperature Precipitation Wind Pressure Humidity
    00:00 0°C° 0.1 mm 3 mps 750 mmHg 96%
    01:00 0°C° 0.1 mm 3 mps 751 mmHg 96%
    02:00 +1°C° 0.1 mm 3 mps 751 mmHg 96%
    03:00 0°C° 0.1 mm 3 mps 751 mmHg 95%
    04:00 0°C° 0.1 mm 3 mps 752 mmHg 95%
    05:00 0°C° 0.1 mm 3 mps 752 mmHg 95%
    06:00 0°C° 0.2 mm 3 mps 752 mmHg 95%
    07:00 0°C° 0.2 mm 3 mps 753 mmHg 94%
    08:00 0°C° 0.2 mm 3 mps 753 mmHg 94%
    09:00 0°C° 0.2 mm 3 mps 754 mmHg 93%
    10:00 0°C° 0.2 mm 3 mps 754 mmHg 92%
    11:00 +1°C° 0.2 mm 3 mps 754 mmHg 91%
    12:00 +1°C° 0.1 mm 3 mps 755 mmHg 91%
    13:00 +1°C° 0.1 mm 3 mps 755 mmHg 91%
    14:00 +1°C° 0.1 mm 3 mps 755 mmHg 92%
    15:00 0°C° 0.1 mm 3 mps 755 mmHg 92%
    16:00 0°C° 0.1 mm 3 mps 756 mmHg 93%
    17:00 0°C° 0.1 mm 3 mps 756 mmHg 94%
    18:00 0°C° 0.1 mm 3 mps 756 mmHg 93%
    19:00 0°C° 0.1 mm 3 mps 756 mmHg 92%
    20:00 0°C° 0.1 mm 3 mps 756 mmHg 91%
    21:00 -1°C° 0.1 mm 3 mps 757 mmHg 92%
    22:00 -1°C° 0.1 mm 3 mps 757 mmHg 92%
    23:00 -1°C° 0.1 mm 3 mps 757 mmHg 92%

    20 November, Tuesday

    Time Temperature Precipitation Wind Pressure Humidity
    00:00 -1°C° 0 mm 3 mps 757 mmHg 92%
    01:00 -1°C° 0 mm 3 mps 757 mmHg 92%
    02:00 -2°C° 0 mm 3 mps 757 mmHg 92%
    03:00 -2°C° 0 mm 2 mps 757 mmHg 92%
    04:00 -3°C° 0 mm 2 mps 757 mmHg 93%
    05:00 -3°C° 0 mm 2 mps 757 mmHg 93%
    06:00 -4°C° 0 mm 2 mps 757 mmHg 92%
    07:00 -4°C° 0 mm 2 mps 757 mmHg 90%
    08:00 -4°C° 0 mm 2 mps 757 mmHg 89%
    09:00 -4°C° 0 mm 2 mps 757 mmHg 86%
    10:00 -3°C° 0 mm 2 mps 756 mmHg 82%
    11:00 -2°C° 0 mm 2 mps 756 mmHg 79%
    12:00 -2°C° 0 mm 2 mps 756 mmHg 80%
    13:00 -2°C° 0 mm 2 mps 755 mmHg 81%
    14:00 -2°C° 0 mm 2 mps 755 mmHg 82%
    15:00 -2°C° 0 mm 2 mps 755 mmHg 85%
    16:00 -3°C° 0 mm 2 mps 754 mmHg 88%
    17:00 -4°C° 0 mm 2 mps 754 mmHg 90%
    18:00 -4°C° 0 mm 2 mps 754 mmHg 91%
    19:00 -2°C° 0 mm 1 mps 754 mmHg 91%
    20:00 -2°C° 0 mm 1 mps 754 mmHg 91%
    21:00 -2°C° 0.1 mm 1 mps 754 mmHg 91%
    22:00 -1°C° 0.1 mm 1 mps 754 mmHg 91%
    23:00 -1°C° 0.1 mm 1 mps 754 mmHg 91%

    21 November, Wednesday

    Time Temperature Precipitation Wind Pressure Humidity
    00:00 -1°C° 0.1 mm 1 mps 754 mmHg 91%
    01:00 -1°C° 0.1 mm 1 mps 754 mmHg 92%
    02:00 -3°C° 0.1 mm 2 mps 754 mmHg 93%
    03:00 -3°C° 0 mm 2 mps 754 mmHg 92%
    04:00 -3°C° 0 mm 2 mps 754 mmHg 92%
    05:00 -3°C° 0 mm 2 mps 754 mmHg 92%
    06:00 -3°C° 0 mm 2 mps 754 mmHg 92%
    07:00 -3°C° 0 mm 2 mps 754 mmHg 92%
    08:00 -3°C° 0 mm 2 mps 754 mmHg 92%
    09:00 -2°C° 0 mm 2 mps 754 mmHg 90%
    10:00 -2°C° 0 mm 2 mps 755 mmHg 89%
    11:00 -2°C° 0 mm 2 mps 755 mmHg 88%
    12:00 -2°C° 0 mm 2 mps 755 mmHg 88%
    13:00 -2°C° 0 mm 2 mps 755 mmHg 88%
    14:00 -2°C° 0 mm 2 mps 755 mmHg 88%
    15:00 -2°C° 0 mm 2 mps 755 mmHg 89%
    16:00 -3°C° 0 mm 2 mps 755 mmHg 90%
    17:00 -3°C° 0 mm 2 mps 755 mmHg 92%
    18:00 -4°C° 0 mm 2 mps 755 mmHg 92%
    19:00 -4°C° 0 mm 2 mps 755 mmHg 92%
    20:00 -4°C° 0 mm 2 mps 756 mmHg 93%
    21:00 -4°C° 0 mm 2 mps 756 mmHg 93%
    22:00 -4°C° 0 mm 2 mps 756 mmHg 94%
    23:00 -5°C° 0 mm 2 mps 756 mmHg 95%
    Show more